Weather History for Brainerd, MN

Change the Weather History Date:

Monday, March 25, 2013

  Actual Average Record
Temperature  
Mean Temperature 28 °F -  
Max Temperature 36 °F 41 °F 67 °F (1963)
Min Temperature 19 °F 19 °F -20 °F (1974)
Degree Days  
Heating Degree Days 38    
Moisture  
Dew Point 14 °F    
Average Humidity 56    
Maximum Humidity 68    
Minimum Humidity 43    
Precipitation  
Precipitation 0.00 in - - ()
Sea Level Pressure  
Sea Level Pressure 30.21 in    
Wind  
Wind Speed 11 mph (NNW)    
Max Wind Speed 18 mph    
Max Gust Speed 23 mph    
Visibility 10 miles    
Events      
Averages and records for this station are not official NWS values.
T = Trace of Precipitation, MM = Missing Value Source: NWS Daily Summary

Daily Weather History Graph

Daily Weather History Graph

Search for Another Location

Airport:

Trip Planner

Search our weather history database for the weather conditions in past years. The results will help you decide how hot, cold, wet, or windy it might be!

Date:

Astronomy

Mar. 25, 2013 Rise Set
Actual Time 7:09 AM CDT 7:36 PM CDT
Civil Twilight 6:39 AM CDT 8:06 PM CDT
Nautical Twilight 6:03 AM CDT 8:42 PM CDT
Astronomical Twilight 5:26 AM CDT 9:19 PM CDT
Moon 6:05 PM CDT (3/25) 5:57 AM CDT (3/25)
Length of Visible Light 13h 27m
Length of Day
12h 27m
Waxing Gibbous, 96% of the Moon is Illuminated
Mar 25
Waxing Gibbous
Mar 27
Full
Apr 2
Last Quarter
Apr 10
New
Apr 18
First Quarter

Hourly Weather History & Observations

Time (CDT) Temp. Windchill Dew Point Humidity Pressure Visibility Wind Dir Wind Speed Gust Speed Precip Events Conditions
12:53 AM 28.0 °F 20.0 °F 16.0 °F 61% 30.15 in 10.0 mi North 8.1 mph - N/A   Overcast
1:53 AM 28.0 °F 20.0 °F 15.1 °F 58% 30.14 in 10.0 mi North 8.1 mph - N/A   Overcast
2:53 AM 26.1 °F 16.8 °F 14.0 °F 60% 30.15 in 10.0 mi North 9.2 mph - N/A   Overcast
3:53 AM 23.0 °F 12.4 °F 12.0 °F 63% 30.14 in 10.0 mi NNW 10.4 mph - N/A   Clear
4:53 AM 21.0 °F 10.6 °F 10.9 °F 65% 30.16 in 10.0 mi NNW 9.2 mph - N/A   Clear
5:53 AM 19.9 °F 9.3 °F 10.0 °F 65% 30.17 in 10.0 mi North 9.2 mph - N/A   Clear
6:53 AM 19.0 °F 7.5 °F 10.0 °F 68% 30.18 in 10.0 mi North 10.4 mph - N/A   Clear
7:53 AM 19.0 °F 7.5 °F 10.0 °F 68% 30.21 in 10.0 mi NNW 10.4 mph - N/A   Clear
8:53 AM 23.0 °F 10.6 °F 10.9 °F 60% 30.22 in 10.0 mi North 13.8 mph 21.9 mph N/A   Clear
9:53 AM 25.0 °F 13.6 °F 12.9 °F 60% 30.22 in 10.0 mi North 12.7 mph - N/A   Clear
10:53 AM 28.9 °F 19.2 °F 14.0 °F 54% 30.22 in 10.0 mi North 11.5 mph - N/A   Clear
11:53 AM 30.9 °F 19.1 °F 15.1 °F 52% 30.23 in 10.0 mi North 18.4 mph - N/A   Clear
12:53 PM 33.1 °F 23.0 °F 15.1 °F 48% 30.22 in 10.0 mi North 15.0 mph 23.0 mph N/A   Clear
1:53 PM 33.1 °F 22.6 °F 15.1 °F 48% 30.22 in 10.0 mi NNW 16.1 mph - N/A   Clear
2:53 PM 35.1 °F 24.8 °F 17.1 °F 48% 30.20 in 10.0 mi NNW 17.3 mph 23.0 mph N/A   Clear
3:53 PM 36.0 °F 26.3 °F 15.1 °F 43% 30.20 in 10.0 mi NNW 16.1 mph 21.9 mph N/A   Clear
4:53 PM 36.0 °F 26.7 °F 17.1 °F 46% 30.21 in 10.0 mi NNW 15.0 mph - N/A   Partly Cloudy
5:53 PM 36.0 °F 26.7 °F 17.1 °F 46% 30.22 in 10.0 mi NNW 15.0 mph - N/A   Scattered Clouds
6:53 PM 35.1 °F 25.9 °F 17.1 °F 48% 30.23 in 10.0 mi NNW 13.8 mph - N/A   Mostly Cloudy
7:53 PM 32.0 °F 23.6 °F 17.1 °F 54% 30.25 in 10.0 mi NNW 10.4 mph - N/A   Overcast
8:53 PM 30.0 °F 24.1 °F 15.1 °F 54% 30.26 in 10.0 mi NW 5.8 mph - N/A   Clear
9:53 PM 28.0 °F 20.8 °F 15.1 °F 58% 30.27 in 10.0 mi NNW 6.9 mph - N/A   Clear
10:53 PM 28.0 °F 20.8 °F 15.1 °F 58% 30.28 in 10.0 mi NW 6.9 mph - N/A   Overcast
11:53 PM 28.0 °F 18.6 °F 16.0 °F 61% 30.28 in 10.0 mi NNW 10.4 mph - N/A   Overcast